User: anonymous   Login
Location: Bermeries
(50.2863°N, 3.7551°E)
Time: 01:56:07
(UTC+00:00)
Language:

ADEOS II - Orbit

View from above orbital plane
View from above orbital plane
View from above satellite
View from above satellite

Ground track
Ground track

The orbit data is extracted from the following two-line orbital elements,

1 27597U 02056A   25117.48996280  .00000787  00000-0  32864-3 0  9993
2 27597  98.7346  69.7103 0001134 133.9656 226.1619 14.29008067165137
Epoch (UTC): 27 April 2025 11:45:32
Eccentricity: 0.0001134
inclination: 98.7346°
perigee height: 794 km
apogee height: 796 km
right ascension of ascending node: 69.7103°
argument of perigee: 133.9656°
revolutions per day: 14.29008067
mean anomaly at epoch: 226.1619°
orbit number at epoch: 16513

The dashed part of the orbit path shows where the satellite is in the earth's shadow,  

DLR